CAPE
33 13 2 27 35 87 123 176 153 209 191 179 198 265 212 173 337 390 188 222 396 314 360 487 501 640 694 755 886 892 841 870 843
8 60 35 20 22 95 116 160 182 265 252 229 148 190 300 263 430 517 457 432 429 429 376 324 483 660 760 840 880 792 818 886 889
42 73 66 31 18 54 96 144 163 214 331 351 258 317 347 330 276 442 489 458 503 434 377 304 409 529 651 868 855 810 888 772 712
125 156 210 172 95 74 47 91 157 200 283 349 528 605 574 516 488 422 616 552 491 523 450 339 152 373 482 659 823 844 789 848 795
141 72 175 204 150 169 132 56 74 169 203 225 210 288 703 812 928 941 826 721 633 394 476 449 419 430 468 401 482 540 767 592 1184
257 288 270 213 205 159 104 95 71 48 178 186 151 156 160 237 591 718 883 905 802 688 581 503 559 382 414 387 278 308 335 530 494
446 425 448 392 306 270 245 176 154 165 243 210 219 207 176 294 250 377 700 793 799 821 794 735 715 569 304 351 465 295 275 233 409
682 731 624 567 635 492 353 283 224 172 164 212 257 258 162 215 92 30 68 186 253 576 789 864 726 602 443 362 442 415 310 284 218
993 904 821 791 702 523 436 486 355 267 298 508 510 162 170 176 191 118 22 19 33 45 472 793 878 845 739 489 430 395 328 261 230
1064 975 905 905 798 868 948 829 672 527 470 413 257 158 131 130 77 94 85 105 40 0 37 337 775 905 963 902 689 602 551 561 547
1035 1021 1088 1034 915 1041 873 768 917 922 886 768 628 480 438 403 381 261 219 114 38 9 0 18 234 604 816 837 834 831 837 811 629
1134 1071 1138 1105 1034 923 912 1011 936 938 855 766 596 433 436 323 218 254 319 247 10 16 51 180 74 253 399 445 574 393 522 578 590
1151 1076 1091 1144 1012 844 939 738 866 743 604 551 599 606 536 648 530 418 340 274 196 444 305 227 195 192 249 246 440 624 747 747 718
911 975 1046 1060 1131 1196 809 894 892 706 654 523 563 790 773 746 511 260 143 46 0 50 166 541 520 466 482 533 462 440 370 316 330
730 1066 1228 1271 1370 1159 1026 1105 1137 892 595 324 435 661 562 356 211 104 29 0 0 0 50 129 195 321 343 202 209 198 202 205 257
824 1139 1404 1579 1390 1114 899 1130 1137 394 268 399 510 416 168 37 1 2 0 0 0 0 0 0 23 72 152 164 236 182 145 120 141
958 1216 1550 1496 990 598 548 529 424 116 201 70 180 55 20 1 0 0 0 0 0 0 0 0 1 0 0 0 2 0 0 6 5
956 1228 1350 1027 635 465 476 281 79 0 0 0 0 27 0 0 0 0 0 0 0 0 0 0 0 0 0 0 0 0 0 0 0
871 1112 823 497 338 86 109 73 41 0 0 0 0 0 112 0 0 0 0 0 0 0 0 0 0 0 0 0 0 0 0 0 0
742 716 439 77 123 105 74 134 60 0 0 0 0 0 0 3 2 0 1 0 0 0 0 0 0 0 0 0 0 0 0 0 0
CIN
-257 -132 -92 -62 -105 -73 -92 -294 -161 -272 -42 -110 -86 -19 -66 -133 -74 -41 -98 -81 -33 -34 -50 -40 -178 -130 -54 -34 -16 -11 -85 -16 -30
-186 -151 -110 -78 -60 -335 -297 -279 -242 -299 -71 -100 -40 -39 -24 -109 -94 -55 -54 -58 -40 -38 -39 -190 -100 -52 -110 -82 -31 -23 -107 -87 -75
-344 -87 -54 -55 -73 -93 -255 -251 -149 -74 -266 -270 -125 -31 -36 -39 -51 -81 -99 -78 -44 -66 -61 -67 -226 -210 -180 -149 -135 -36 -120 -76 -101
-246 -169 -76 -59 -78 -29 -48 -267 -192 -125 -131 -107 -227 -163 -89 -119 -75 -55 -22 -28 -96 -50 -55 -62 -259 -235 -200 -154 -132 -100 -114 -103 -104
-91 -261 -124 -62 -71 -43 -40 -48 -240 -238 -132 -71 -68 -271 -151 -129 -106 -72 -63 -39 -25 -47 -56 -40 -61 -66 -78 -205 -173 -128 -41 -101 -61
-65 -53 -46 -30 -25 -22 -33 -42 -42 -287 -308 -298 -171 -13 -238 -212 -184 -154 -103 -74 -58 -73 -58 -50 -26 -63 -57 -56 -70 -66 -62 -44 -108
-39 -51 -49 -28 -44 -79 -72 -55 -51 -265 -231 -99 -20 -44 -87 -82 -115 -158 -120 -90 -78 -74 -58 -45 -28 -33 -54 -39 -18 -31 -39 -46 -119
-137 -65 -60 -69 -80 -93 -89 -73 -67 -57 -143 -188 -27 -38 -86 -43 -42 -54 -129 -114 -105 -98 -61 -33 -39 -40 -43 -39 -19 -18 -30 -20 -143
-104 -108 -129 -123 -116 -129 -125 -87 -93 -113 -115 -64 -39 -113 -92 -59 -40 -34 -54 -111 -100 -131 -63 -36 -23 -30 -36 -48 -24 -19 -26 -28 -32
-128 -171 -167 -139 -146 -186 -181 -183 -197 -191 -176 -148 -100 -92 -111 -69 -48 -46 -49 -53 -57 -0 -89 -35 -41 -35 -34 -32 -30 -24 -23 -16 -12
-188 -204 -184 -163 -163 -202 -229 -249 -224 -207 -159 -129 -102 -73 -49 -23 -31 -27 -16 -39 -88 -49 -0 -75 -87 -50 -38 -25 -51 -49 -31 -26 -23
-164 -168 -167 -172 -181 -218 -241 -233 -245 -221 -193 -154 -124 -93 -40 -46 -68 -35 -11 -20 -151 -48 -83 -78 -136 -79 -46 -25 -114 -135 -105 -77 -59
-173 -129 -132 -164 -174 -214 -186 -253 -218 -215 -209 -177 -126 -68 -36 -9 -18 -18 -17 -13 -21 -7 -27 -75 -63 -99 -62 -64 -111 -87 -73 -76 -65
-127 -153 -122 -115 -143 -206 -227 -218 -192 -183 -152 -146 -103 -29 -7 -0 -4 -22 -52 -80 -0 -82 -56 -7 -17 -51 -64 -71 -74 -65 -72 -96 -104
-166 -307 -322 -149 -182 -200 -236 -184 -139 -132 -144 -178 -111 -29 -12 -22 -46 -59 -51 -0 -0 -0 -109 -75 -67 -55 -50 -79 -95 -59 -72 -111 -123
-315 -395 -275 -189 -190 -248 -252 -181 -128 -183 -212 -146 -91 -68 -111 -246 -3 -0 -0 -0 -0 -0 -0 -0 -148 -99 -91 -73 -76 -48 -17 -63 -101
-409 -368 -208 -190 -264 -295 -269 -228 -199 -236 -201 -281 -158 -225 -274 -111 -0 -0 -0 -0 -0 -0 -0 -0 -0 -0 -0 -0 -0 -0 -0 -50 -51
-353 -253 -145 -178 -288 -325 -265 -248 -276 -0 -0 -0 -0 -170 -0 -0 -0 -0 -0 -0 -0 -0 -0 -0 -0 -0 -0 -0 -0 -0 -0 -0 -0
-298 -137 -46 -179 -22 -204 -279 -303 -287 -0 -0 -0 -0 -0 -28 -0 -0 -0 -0 -0 -0 -0 -0 -0 -0 -0 -0 -0 -0 -0 -0 -0 -0
-198 -69 -195 -54 -58 -132 -163 -224 -124 -0 -0 -0 -0 -0 -1 -0 -0 -0 -0 -0 -0 -0 -0 -0 -0 -0 -0 -0 -0 -0 -0 -0 -0
Wind_Speed
nan nan nan nan nan nan 11 10 14 9 8 6 7 6 8 8 8 14 16 14 14 15 18 19 16 13 11 12 11 11 10 9 7
nan nan nan nan nan nan 7 8 11 10 12 9 10 6 10 9 8 8 12 16 15 15 18 19 16 16 15 15 13 11 13 14 10
nan nan nan nan nan nan nan 10 17 17 18 12 9 8 9 8 8 9 9 14 13 17 21 20 19 18 17 15 14 13 16 16 13
21 19 12 12 nan nan nan nan 11 10 13 23 18 9 10 10 9 9 11 11 12 17 20 21 22 21 21 19 18 16 16 14 15
15 nan 12 11 9 8 7 nan nan 11 10 7 14 15 14 8 11 11 12 13 14 20 18 23 23 24 23 22 18 17 17 15 14
10 11 9 5 6 6 6 nan nan nan 6 3 16 17 16 12 12 14 13 16 18 19 20 18 21 24 23 21 20 19 22 17 14
10 7 8 6 4 7 6 8 7 6 8 10 16 17 20 20 20 22 21 22 21 20 20 19 20 21 21 22 23 21 18 18 17
15 8 10 2 5 8 10 8 10 7 8 13 16 18 16 14 nan nan nan 28 24 25 23 20 19 22 23 22 22 20 21 19 17
21 13 9 2 4 7 9 9 9 10 8 7 9 13 16 20 20 26 nan nan nan nan 25 23 22 21 24 26 22 23 24 24 21
20 17 16 9 9 10 12 9 8 10 12 10 8 9 11 14 nan nan nan 29 nan nan nan 24 24 23 29 30 27 26 26 23 23
23 20 20 15 16 14 15 14 12 12 11 10 9 8 8 10 10 11 10 14 nan nan nan nan 31 31 27 31 32 29 25 24 26
26 25 21 22 24 25 20 18 17 16 13 12 10 8 8 9 10 11 17 19 nan nan nan 38 nan 37 35 30 33 30 27 31 29
21 29 29 28 28 26 26 22 19 17 15 13 11 8 9 13 16 16 18 21 25 25 30 27 35 37 38 34 37 41 40 38 34
34 35 32 32 23 28 27 25 21 19 16 14 14 17 18 16 16 17 19 nan nan nan 23 22 28 36 37 39 49 48 44 44 42
37 39 34 31 31 32 27 23 22 20 18 17 19 19 20 21 20 20 nan nan nan nan nan 19 20 20 24 39 32 39 43 50 52
30 43 35 33 29 27 26 21 21 19 17 21 22 24 24 nan nan nan nan nan nan nan nan nan nan nan 24 25 25 24 28 32 35
33 37 40 35 29 26 24 21 19 19 21 nan 26 nan nan nan nan nan nan nan nan nan nan nan nan nan nan nan nan nan nan nan nan
31 34 35 35 32 28 22 21 nan nan nan nan nan nan nan nan nan nan nan nan nan nan nan nan nan nan nan nan nan nan nan nan nan
44 49 49 42 40 nan 26 nan nan nan nan nan nan nan 24 nan nan nan nan nan nan nan nan nan nan nan nan nan nan nan nan nan nan
49 51 53 nan 38 31 nan 20 nan nan nan nan nan nan nan nan nan nan nan nan nan nan nan nan nan nan nan nan nan nan nan nan nan
Wind_Direction
nan nan nan nan nan nan 305 289 288 291 305 296 290 257 219 216 217 209 211 200 198 211 206 196 199 203 194 190 194 216 220 193 184
nan nan nan nan nan nan 299 291 259 255 268 278 277 290 241 222 220 229 219 214 214 211 211 204 204 212 200 207 205 223 239 220 211
nan nan nan nan nan nan nan 295 234 247 249 278 268 276 269 238 230 228 233 244 239 214 202 203 210 217 213 220 226 229 243 240 228
343 333 329 332 nan nan nan nan 243 250 258 252 239 267 255 251 236 235 239 237 240 252 237 219 215 223 226 226 229 237 246 246 237
321 nan 325 331 326 290 280 nan nan 271 287 243 200 230 243 254 273 254 232 226 228 238 249 242 233 231 231 236 242 244 250 250 246
310 311 290 313 309 330 320 nan nan nan 284 242 226 246 252 251 249 258 251 236 233 236 245 246 244 242 241 238 235 239 249 250 250
302 286 265 258 278 317 316 307 294 259 242 227 238 244 251 259 260 252 250 244 240 240 243 248 252 254 250 246 246 246 263 250 245
304 274 247 224 23 357 339 309 284 276 247 241 245 247 245 228 nan nan nan 242 241 238 244 246 250 256 254 248 250 252 257 254 254
297 286 247 252 316 336 356 332 303 295 294 278 255 255 254 247 250 244 nan nan nan nan 230 237 243 250 257 258 242 253 263 257 251
290 279 246 270 303 329 328 317 296 286 288 289 290 273 258 248 nan nan nan 233 nan nan nan 232 243 245 254 253 247 254 264 271 255
287 280 290 281 294 295 306 294 274 260 266 279 291 295 289 279 268 256 240 228 nan nan nan nan 265 251 246 253 250 256 259 260 255
304 290 282 296 289 282 278 281 277 278 274 270 275 288 296 281 272 259 245 244 nan nan nan 256 nan 249 250 248 248 252 251 254 256
289 282 281 286 279 271 276 272 263 267 270 269 268 256 257 268 260 253 247 243 236 244 246 254 245 244 244 253 252 250 250 256 251
291 274 286 280 274 272 264 262 261 261 268 277 276 270 269 264 264 259 251 nan nan nan 249 246 249 242 244 248 254 252 253 264 259
289 276 273 270 264 264 257 253 251 255 267 276 279 276 271 268 267 265 nan nan nan nan nan 243 245 252 250 258 261 258 259 263 274
280 275 270 268 266 260 252 254 254 262 271 274 279 278 274 nan nan nan nan nan nan nan nan nan nan nan 255 261 265 267 272 261 257
256 256 273 269 269 263 260 268 275 274 277 nan 284 nan nan nan nan nan nan nan nan nan nan nan nan nan nan nan nan nan nan nan nan
243 229 248 267 275 272 268 271 nan nan nan nan nan nan nan nan nan nan nan nan nan nan nan nan nan nan nan nan nan nan nan nan nan
240 237 242 241 240 nan 268 nan nan nan nan nan nan nan 281 nan nan nan nan nan nan nan nan nan nan nan nan nan nan nan nan nan nan
242 254 244 nan 218 239 nan 252 nan nan nan nan nan nan nan nan nan nan nan nan nan nan nan nan nan nan nan nan nan nan nan nan nan